Location: DAV
(33.5613°N, 82.7640°W)
Time: 18:26:53
(UTC-04:00)

Hubble Space Telescope - Visible Passes

Search period start: 20 July 2018 00:00
Search period end: 30 July 2018 00:00
Orbit: 537 x 541 km, 28.5° (Epoch: 19 July)

Date Brightness Start Highest point End Pass type
(mag) Time Alt. Az. Time Alt. Az. Time Alt. Az.
20 Jul 1.3 05:12:20 30° SW 05:13:41 39° S 05:17:33 10° ESE visible
21 Jul 1.3 05:02:44 35° SSW 05:03:17 37° S 05:07:06 10° ESE visible
22 Jul 1.6 04:53:17 33° S 04:53:17 33° S 04:56:39 10° ESE visible
23 Jul 2.2 04:44:00 24° SSE 04:44:00 24° SSE 04:46:09 10° SE visible
24 Jul 3.1 04:34:55 14° SE 04:34:55 14° SE 04:35:36 10° SE visible
24 Jul 2.9 06:11:48 10° SW 06:12:42 11° SSW 06:13:36 10° SSW visible
28 Jul 2.8 22:33:47 10° SW 22:35:06 18° SW 22:35:06 18° SW visible
29 Jul 2.1 22:23:15 10° SW 22:25:45 27° SSW 22:25:45 27° SSW visible
